{"data":{"norad_id":69485,"intl_designator":"2026-131H","name":"STARLINK-37892","alt_names":[],"object_type":"PAYLOAD","status":"ACTIVE","operator":null,"country":"US","launch_date":"2026-06-11","launch_site_code":"AFWTR","launch_vehicle":null,"mission":null,"orbit_class":"UNKNOWN","rcs_meters":null,"size_class":null,"mass_kg":null,"dimensions":null,"purposes":["comms"],"wikipedia_slug":null,"has_3d_model":false,"image_url":null,"decayed_at":null,"tle_current":{"epoch":"2026-09-20T00:42:03.414816Z","epoch_age_seconds":66151,"freshness":"FRESH","line1":"1 69485U 26131H   26263.02920619  .00012135  00000+0  37747-3 0  9995","line2":"2 69485  97.2836 283.8754 0001364 105.5630 254.5763 15.33455671 16829","mean_motion":15.33455671,"eccentricity":0.0001364,"inclination_deg":97.2836,"raan_deg":283.8754,"arg_perigee_deg":105.563,"mean_anomaly_deg":254.5763,"bstar":0.00037747,"rev_number":1682,"period_min":93.905551183031,"perigee_km":464.57795162873,"apogee_km":466.44489891914,"semimajor_km":6843.6484252739,"source":"CELESTRAK","updated_at":"2026-09-20T09:00:44.206683Z"}}}